Location: City of Moscow
(46.7306°N, 116.9989°W)
Time: 14:11:54
(UTC+00:00)

CUBEBUG 2 - Pass Details

Date: 19 April 2026
Orbit: 546 x 628 km, 97.9° (Epoch: 15 May)

Event Time Altitude Azimuth Distance (km) Brightness Sun altitude
Rises 09:29:27 0° 23° (NNE) 2,862 ? -27.7°
Reaches altitude 10° 09:31:56 10° 36° (NE) 1,939 ? -27.5°
Maximum altitude 09:35:32 27° 95° (E) 1,132 ? -27.2°
Enters shadow 09:35:34 27° 95° (E) 1,132 ? -27.2°
